Weather History for Roosevelt Roads, PR

Change the Weather History Date:

Tuesday, November 27, 2012

  Actual Average Record
Temperature  
Mean Temperature 80 °F -  
Max Temperature 86 °F 82 °F 87 °F (2006)
Min Temperature 75 °F 70 °F 46 °F (1997)
Cooling Degree Days 16    
Growing Degree Days 30 (Base 50)    
Moisture  
Dew Point 73 °F    
Average Humidity 78    
Maximum Humidity 89    
Minimum Humidity 72    
Precipitation  
Precipitation 0.18 in - - ()
Sea Level Pressure  
Sea Level Pressure 30.02 in    
Wind  
Wind Speed 8 mph (ENE)    
Max Wind Speed 12 mph    
Max Gust Speed 20 mph    
Visibility 9 miles    
Events Rain    
Averages and records for this station are not official NWS values.
T = Trace of Precipitation, MM = Missing Value Source: NWS Daily Summary

Daily Weather History Graph

Daily Weather History Graph

Search for Another Location

Airport:

Trip Planner

Search our weather history database for the weather conditions in past years. The results will help you decide how hot, cold, wet, or windy it might be!

Date:

Astronomy

Nov. 27, 2012 Rise Set
Actual Time 6:35 AM AST 5:44 PM AST
Civil Twilight 6:12 AM AST 6:08 PM AST
Nautical Twilight 5:45 AM AST 6:34 PM AST
Astronomical Twilight 5:19 AM AST 7:01 PM AST
Moon 5:11 PM AST (11/27) 5:41 AM AST (11/27)
Length of Visible Light 11h 55m
Length of Day
11h 08m
Waxing Gibbous, 99% of the Moon is Illuminated
Nov 27
Waxing Gibbous
Nov 28
Full
Dec 6
Last Quarter
Dec 13
New
Dec 20
First Quarter

Hourly Weather History & Observations

Time (AST) Temp. Heat Index Dew Point Humidity Pressure Visibility Wind Dir Wind Speed Gust Speed Precip Events Conditions
12:03 AM 80.6 °F 85.4 °F 73.4 °F 79% 30.05 in 10.0 mi ENE 10.4 mph - N/A   Overcast
12:53 AM 81.0 °F 85.8 °F 73.0 °F 77% 30.04 in 10.0 mi ENE 11.5 mph 18.4 mph N/A   Mostly Cloudy
1:53 AM 80.1 °F - - N/A% 30.03 in 10.0 mi NE 11.5 mph - N/A   Clear
2:53 AM 80.1 °F 83.8 °F 72.0 °F 76% 30.01 in 10.0 mi NE 9.2 mph - N/A   Partly Cloudy
3:53 AM 79.0 °F - - N/A% 30.00 in 10.0 mi ENE 9.2 mph 19.6 mph N/A   Mostly Cloudy
4:53 AM 78.1 °F - - N/A% 30.01 in 10.0 mi NNE 10.4 mph - 0.03 in   Overcast
5:10 AM 75.2 °F - 71.6 °F 89% 30.01 in 1.8 mi East 6.9 mph - 0.10 in Rain Heavy Rain
5:18 AM 77.0 °F - 71.6 °F 83% 30.01 in 3.0 mi Calm Calm - 0.14 in Rain Light Rain
5:53 AM 75.9 °F - - N/A% 30.01 in 10.0 mi NE 5.8 mph - 0.14 in   Overcast
6:04 AM 78.8 °F - - N/A% 30.01 in 5.0 mi ENE 10.4 mph 17.3 mph 0.00 in Rain Light Rain
6:15 AM 78.8 °F - - N/A% 30.01 in 7.0 mi NE 10.4 mph - 0.01 in Rain Light Rain
6:53 AM 78.1 °F - 73.0 °F 84% 30.02 in 10.0 mi NE 8.1 mph - 0.01 in   Mostly Cloudy
7:53 AM 80.1 °F - - N/A% 30.05 in 10.0 mi ENE 6.9 mph - N/A   Scattered Clouds
8:53 AM 82.0 °F - - N/A% 30.06 in 10.0 mi North 4.6 mph - N/A   Overcast
9:53 AM 82.0 °F - - N/A% 30.07 in 10.0 mi NE 4.6 mph - 0.00 in   Mostly Cloudy
10:53 AM 84.0 °F 91.2 °F 73.9 °F 72% 30.07 in 10.0 mi NNE 6.9 mph - N/A   Clear
11:53 AM 84.9 °F - - N/A% 30.05 in 10.0 mi ENE 6.9 mph - N/A   Clear
12:53 PM 86.0 °F - - N/A% 30.03 in 10.0 mi ENE 5.8 mph - N/A   Clear
1:53 PM 86.0 °F - - N/A% 30.00 in 10.0 mi East 6.9 mph - N/A   Clear
2:53 PM 84.9 °F - - N/A% 29.98 in 10.0 mi ENE 5.8 mph - N/A   Clear
3:53 PM 84.0 °F - - N/A% 29.98 in 10.0 mi NE 4.6 mph - N/A   Partly Cloudy
4:53 PM 82.9 °F 88.8 °F 73.0 °F 72% 29.98 in 10.0 mi East 5.8 mph - N/A   Clear
5:53 PM 81.0 °F 85.8 °F 73.0 °F 77% 29.98 in 10.0 mi East 4.6 mph - N/A   Clear
6:53 PM 80.1 °F - - N/A% 30.00 in 10.0 mi East 3.5 mph - N/A   Clear
7:53 PM 80.1 °F - - N/A% 30.01 in 10.0 mi Calm Calm - N/A   Clear
8:53 PM 81.0 °F - - N/A% 30.02 in 10.0 mi ENE 3.5 mph - N/A   Scattered Clouds
9:53 PM 81.0 °F 85.8 °F 73.0 °F 77% 30.03 in 10.0 mi ENE 6.9 mph - N/A   Clear
10:53 PM 81.0 °F 85.8 °F 73.0 °F 77% 30.02 in 10.0 mi East 5.8 mph - N/A   Clear
11:53 PM 81.0 °F - - N/A% 30.01 in 10.0 mi ENE 3.5 mph - N/A   Scattered Clouds